OPTIMAL-1

Last updated on Tue Aug 22 2023 00:02:07 GMT+0000 (Coordinated Universal Time)

1 55183U 98067VA 23233.39098961 .05183587 12307-4 74211-3 0 9992 2 55183 51.6347 331.0564 0010608 323.4939 36.5361 16.33792705 35689

Satellite not in orbit